This is the latest recevied weather packets stored in our database for station/object JF7ELG-13. If no packets are shown the sender has not sent any weather packets the latest 10 day(s).
| Time | Temp. | Humidity | Pressure | Rain* | Wind** | Luminosity | Snow |
|---|---|---|---|---|---|---|---|
| 1777606429 | 16.67° C | 98% | 1000.3 hPa | 29.97 mm | - | - | - |
| 1777605508 | 16.67° C | 98% | 1000.8 hPa | 32 mm | - | - | - |
| 1777604604 | 16.67° C | 98% | 1001.3 hPa | 29.97 mm | - | - | - |
| 1777603710 | 16.11° C | 97% | 1001.5 hPa | 29.97 mm | - | - | - |
| 1777602821 | 16.11° C | 97% | 1002.1 hPa | 27.94 mm | - | - | - |
| 1777601916 | 16.11° C | 97% | 1002.4 hPa | 24.89 mm | - | - | - |
| 1777601020 | 16.11° C | 97% | 1003 hPa | 23.88 mm | - | - | - |
| 1777600113 | 16.11° C | 97% | 1003.5 hPa | 24.89 mm | - | - | - |
| 1777599198 | 16.11° C | 97% | 1003.9 hPa | 23.88 mm | - | - | - |
| 1777598293 | 16.11° C | 97% | 1004.3 hPa | 24.89 mm | - | - | - |
| 1777597423 | 16.11° C | 97% | 1004.7 hPa | 22.1 mm | - | - | - |
| 1777596498 | 16.11° C | 97% | 1005.1 hPa | 18.03 mm | - | - | - |
| 1777595633 | 16.11° C | 97% | 1005.7 hPa | 14.99 mm | - | - | - |
| 1777594694 | 16.11° C | 98% | 1006 hPa | 13.97 mm | - | - | - |
| 1777593808 | 15.56° C | 98% | 1006.4 hPa | 14.99 mm | - | - | - |
| 1777592891 | 15.56° C | 99% | 1006.6 hPa | 16 mm | - | - | - |
| 1777592022 | 13.33° C | 97% | 1007 hPa | 21.08 mm | - | - | - |
| 1777591115 | 13.33° C | 97% | 1007.5 hPa | 24.89 mm | - | - | - |
| 1777590201 | 12.78° C | 97% | 1008.1 hPa | 23.88 mm | - | - | - |
| 1777589294 | 12.78° C | 97% | 1008.3 hPa | 23.11 mm | - | - | - |
| 1777588414 | 12.78° C | 97% | 1008.5 hPa | 14.99 mm | - | - | - |
| 1777587510 | 12.78° C | 97% | 1008.8 hPa | 9.91 mm | - | - | - |
| 1777586595 | 12.78° C | 96% | 1008.7 hPa | 7.87 mm | - | - | - |
| 1777585717 | 12.78° C | 96% | 1008.8 hPa | 4.06 mm | - | - | - |
| 1777584810 | 12.78° C | 96% | 1009 hPa | 5.08 mm | - | - | - |
* Rain latest hour (hover to see other rain measurements)
** Current wind speed in m/s (hover to see current wind gust speed)